When you browse on this site, cookies collect data to enhance your experience and personalize the content and advertising you see.
Visit our Privacy Policy to learn more. By continuing to use the site, you agree to this use of cookies and data.
  • In Schweiz
  • Länderverzeichnis
  • Für 7 Tage
  • Wassertemperatur
  • Wetterkarte
  • Widgets
  • user-avatar
    Anmelden

    Stündliche Wetter Warwick

    Heute, 19 September, Donnerstag

    Zeit Temperatur Niederschläge Wind Luftdruck Luftfeuchtigkeit
    00:00 +12°C° 0 mm 1 m/S 768 mmHg 85%
    01:00 +12°C° 0 mm 1 m/S 768 mmHg 86%
    02:00 +10°C° 0 mm 0 m/S 767 mmHg 87%
    03:00 +10°C° 0 mm 0 m/S 767 mmHg 88%
    04:00 +10°C° 0 mm 0 m/S 767 mmHg 88%
    05:00 +10°C° 0 mm 0 m/S 767 mmHg 89%
    06:00 +10°C° 0 mm 0 m/S 767 mmHg 89%
    07:00 +11°C° 0 mm 0 m/S 768 mmHg 82%
    08:00 +13°C° 0 mm 0 m/S 768 mmHg 76%
    09:00 +15°C° 0 mm 0 m/S 768 mmHg 70%
    10:00 +16°C° 0 mm 0 m/S 768 mmHg 65%
    11:00 +18°C° 0 mm 0 m/S 768 mmHg 60%
    12:00 +19°C° 0 mm 0 m/S 768 mmHg 55%
    13:00 +19°C° 0 mm 0 m/S 768 mmHg 54%
    14:00 +20°C° 0 mm 0 m/S 768 mmHg 54%
    15:00 +22°C° 0 mm 1 m/S 767 mmHg 53%
    16:00 +21°C° 0 mm 1 m/S 767 mmHg 58%
    17:00 +17°C° 0 mm 0 m/S 767 mmHg 63%
    18:00 +16°C° 0 mm 0 m/S 767 mmHg 68%
    19:00 +16°C° 0 mm 1 m/S 767 mmHg 70%
    20:00 +16°C° 0 mm 1 m/S 767 mmHg 72%
    21:00 +15°C° 0 mm 1 m/S 767 mmHg 75%
    22:00 +14°C° 0 mm 1 m/S 767 mmHg 77%
    23:00 +14°C° 0 mm 1 m/S 767 mmHg 79%

    Morgen, 20 September, Freitag

    Zeit Temperatur Niederschläge Wind Luftdruck Luftfeuchtigkeit
    00:00 +13°C° 0 mm 2 m/S 767 mmHg 82%
    01:00 +13°C° 0 mm 2 m/S 766 mmHg 83%
    02:00 +12°C° 0 mm 1 m/S 766 mmHg 85%
    03:00 +12°C° 0 mm 1 m/S 766 mmHg 86%
    04:00 +12°C° 0 mm 2 m/S 765 mmHg 88%
    05:00 +10°C° 0 mm 2 m/S 765 mmHg 90%
    06:00 +10°C° 0 mm 2 m/S 765 mmHg 91%
    07:00 +13°C° 0 mm 2 m/S 764 mmHg 86%
    08:00 +13°C° 0 mm 3 m/S 764 mmHg 80%
    09:00 +15°C° 0 mm 4 m/S 764 mmHg 75%
    10:00 +17°C° 0 mm 4 m/S 764 mmHg 69%
    11:00 +18°C° 0 mm 4 m/S 763 mmHg 64%
    12:00 +20°C° 0 mm 5 m/S 763 mmHg 58%
    13:00 +20°C° 0 mm 5 m/S 762 mmHg 56%
    14:00 +20°C° 0 mm 6 m/S 761 mmHg 53%
    15:00 +20°C° 0 mm 6 m/S 760 mmHg 51%
    16:00 +19°C° 0 mm 5 m/S 760 mmHg 54%
    17:00 +16°C° 0 mm 5 m/S 759 mmHg 58%
    18:00 +15°C° 0 mm 4 m/S 759 mmHg 62%
    19:00 +14°C° 0 mm 5 m/S 759 mmHg 66%
    20:00 +13°C° 0 mm 5 m/S 759 mmHg 69%
    21:00 +12°C° 0 mm 5 m/S 759 mmHg 72%
    22:00 +12°C° 0 mm 5 m/S 758 mmHg 73%
    23:00 +12°C° 0 mm 5 m/S 757 mmHg 75%

    übermorgen, 21 September, Samstag

    Zeit Temperatur Niederschläge Wind Luftdruck Luftfeuchtigkeit
    00:00 +12°C° 0 mm 5 m/S 757 mmHg 76%
    01:00 +12°C° 0 mm 5 m/S 756 mmHg 75%
    02:00 +12°C° 0 mm 5 m/S 756 mmHg 74%
    03:00 +12°C° 0 mm 5 m/S 755 mmHg 73%
    04:00 +12°C° 0 mm 5 m/S 755 mmHg 73%
    05:00 +10°C° 0 mm 5 m/S 754 mmHg 73%
    06:00 +10°C° 0 mm 5 m/S 754 mmHg 72%
    07:00 +12°C° 0 mm 5 m/S 753 mmHg 69%
    08:00 +14°C° 0 mm 6 m/S 753 mmHg 65%
    09:00 +15°C° 0 mm 6 m/S 753 mmHg 61%
    10:00 +17°C° 0 mm 6 m/S 752 mmHg 58%
    11:00 +19°C° 0 mm 6 m/S 752 mmHg 55%
    12:00 +21°C° 0 mm 6 m/S 752 mmHg 52%
    13:00 +22°C° 0 mm 6 m/S 751 mmHg 52%
    14:00 +22°C° 0 mm 6 m/S 750 mmHg 53%
    15:00 +23°C° 0 mm 6 m/S 749 mmHg 53%
    16:00 +22°C° 0 mm 5 m/S 749 mmHg 58%
    17:00 +20°C° 0 mm 5 m/S 749 mmHg 63%
    18:00 +19°C° 0 mm 4 m/S 749 mmHg 68%
    19:00 +19°C° 0 mm 5 m/S 748 mmHg 69%
    20:00 +17°C° 0 mm 5 m/S 748 mmHg 69%
    21:00 +17°C° 0 mm 5 m/S 748 mmHg 70%
    22:00 +17°C° 0.6 mm 5 m/S 748 mmHg 75%
    23:00 +18°C° 0.6 mm 4 m/S 747 mmHg 79%

    22 September, Sonntag

    Zeit Temperatur Niederschläge Wind Luftdruck Luftfeuchtigkeit
    00:00 +18°C° 0.6 mm 4 m/S 747 mmHg 84%
    01:00 +18°C° 0.1 mm 3 m/S 746 mmHg 86%
    02:00 +18°C° 0.1 mm 3 m/S 746 mmHg 88%
    03:00 +18°C° 0.1 mm 2 m/S 746 mmHg 90%
    04:00 +17°C° 0 mm 2 m/S 745 mmHg 92%
    05:00 +17°C° 0 mm 2 m/S 745 mmHg 93%
    06:00 +17°C° 0 mm 2 m/S 745 mmHg 94%
    07:00 +17°C° 0.8 mm 2 m/S 745 mmHg 94%
    08:00 +17°C° 0.8 mm 3 m/S 745 mmHg 94%
    09:00 +17°C° 0.8 mm 3 m/S 745 mmHg 94%
    10:00 +17°C° 0.7 mm 3 m/S 745 mmHg 90%
    11:00 +17°C° 0.7 mm 4 m/S 745 mmHg 86%
    12:00 +17°C° 0.7 mm 4 m/S 745 mmHg 83%
    13:00 +18°C° 0.1 mm 4 m/S 745 mmHg 77%
    14:00 +19°C° 0.1 mm 4 m/S 745 mmHg 71%
    15:00 +20°C° 0.1 mm 5 m/S 745 mmHg 65%
    16:00 +19°C° 0 mm 4 m/S 745 mmHg 69%
    17:00 +18°C° 0 mm 3 m/S 746 mmHg 74%
    18:00 +17°C° 0 mm 2 m/S 746 mmHg 78%
    19:00 +16°C° 0.1 mm 2 m/S 746 mmHg 83%
    20:00 +15°C° 0.1 mm 2 m/S 747 mmHg 87%
    21:00 +14°C° 0.1 mm 2 m/S 747 mmHg 91%
    22:00 +13°C° 0.1 mm 3 m/S 748 mmHg 90%
    23:00 +13°C° 0.1 mm 4 m/S 748 mmHg 90%

    23 September, Montag

    Zeit Temperatur Niederschläge Wind Luftdruck Luftfeuchtigkeit
    00:00 +13°C° 0.1 mm 5 m/S 748 mmHg 89%
    01:00 +12°C° 0 mm 5 m/S 749 mmHg 89%
    02:00 +11°C° 0 mm 4 m/S 749 mmHg 90%
    03:00 +11°C° 0 mm 4 m/S 749 mmHg 90%
    04:00 +10°C° 0 mm 3 m/S 749 mmHg 91%
    05:00 +10°C° 0 mm 3 m/S 749 mmHg 92%
    06:00 +10°C° 0 mm 3 m/S 750 mmHg 93%
    07:00 +11°C° 0 mm 3 m/S 749 mmHg 89%
    08:00 +12°C° 0 mm 4 m/S 749 mmHg 85%
    09:00 +14°C° 0 mm 5 m/S 749 mmHg 82%
    10:00 +13°C° 0.6 mm 5 m/S 749 mmHg 85%
    11:00 +13°C° 0.6 mm 5 m/S 748 mmHg 88%
    12:00 +13°C° 0.6 mm 6 m/S 747 mmHg 92%
    13:00 +14°C° 0.8 mm 6 m/S 746 mmHg 92%
    14:00 +14°C° 0.8 mm 5 m/S 745 mmHg 93%
    15:00 +15°C° 0.8 mm 5 m/S 744 mmHg 93%
    16:00 +16°C° 0.9 mm 5 m/S 744 mmHg 93%
    17:00 +16°C° 0.9 mm 5 m/S 744 mmHg 94%
    18:00 +17°C° 0.9 mm 5 m/S 743 mmHg 94%
    19:00 +16°C° 0.1 mm 5 m/S 744 mmHg 94%
    20:00 +16°C° 0.1 mm 5 m/S 744 mmHg 93%
    21:00 +16°C° 0.1 mm 6 m/S 744 mmHg 92%
    22:00 +15°C° 0.1 mm 6 m/S 745 mmHg 91%
    23:00 +15°C° 0.1 mm 6 m/S 745 mmHg 91%

    24 September, Dienstag

    Zeit Temperatur Niederschläge Wind Luftdruck Luftfeuchtigkeit
    00:00 +15°C° 0.1 mm 6 m/S 745 mmHg 90%
    01:00 +15°C° 0 mm 6 m/S 745 mmHg 90%
    02:00 +15°C° 0 mm 6 m/S 745 mmHg 91%
    03:00 +14°C° 0 mm 6 m/S 745 mmHg 91%
    04:00 +14°C° 0 mm 6 m/S 745 mmHg 91%
    05:00 +14°C° 0 mm 6 m/S 745 mmHg 91%
    06:00 +14°C° 0 mm 5 m/S 745 mmHg 91%
    07:00 +15°C° 0 mm 6 m/S 745 mmHg 89%
    08:00 +15°C° 0 mm 6 m/S 745 mmHg 87%
    09:00 +16°C° 0 mm 6 m/S 745 mmHg 85%
    10:00 +17°C° 0 mm 6 m/S 745 mmHg 83%
    11:00 +17°C° 0 mm 6 m/S 744 mmHg 81%
    12:00 +19°C° 0 mm 6 m/S 744 mmHg 79%
    13:00 +19°C° 1 mm 6 m/S 743 mmHg 80%
    14:00 +18°C° 1 mm 7 m/S 743 mmHg 82%
    15:00 +18°C° 1 mm 7 m/S 742 mmHg 83%
    16:00 +17°C° 0.1 mm 7 m/S 742 mmHg 82%
    17:00 +16°C° 0.1 mm 6 m/S 743 mmHg 82%
    18:00 +15°C° 0.1 mm 6 m/S 743 mmHg 81%
    19:00 +15°C° 0 mm 6 m/S 743 mmHg 83%
    20:00 +14°C° 0 mm 6 m/S 743 mmHg 86%
    21:00 +13°C° 0 mm 6 m/S 744 mmHg 88%
    22:00 +13°C° 0 mm 6 m/S 744 mmHg 89%
    23:00 +13°C° 0 mm 6 m/S 743 mmHg 89%
    Mehr zeigen